Frisco, NC

1:59 AM EDT on September 28, 2016 (GMT -0400)
Mitchell

Weather History for KHSE - July, 2012

Change the Weather History Date:

Tuesday, July 3, 2012

  Actual Average Record
Temperature  
Mean Temperature 81 °F 78 °F  
Max Temperature 89 °F 84 °F 93 °F (2014)
Min Temperature 72 °F 73 °F 60 °F (1957)
Degree Days  
Heating Degree Days 0 0  
Month to date heating degree days 0 0  
Since 1 June heating degree days 0 3  
Since 1 July heating degree days 0 0  
Cooling Degree Days 16 13  
Month to date cooling degree days 47 39  
Year to date cooling degree days 694 490  
Since 1 June cooling degree days 369 347  
Growing Degree Days 30 (Base 50)    
Moisture  
Dew Point 71 °F    
Average Humidity 71    
Maximum Humidity 94    
Minimum Humidity 48    
Precipitation  
Precipitation 0.00 in 0.15 in 3.27 in (1933)
Month to date precipitation 0.51 0.44  
Year to date precipitation 26.04 25.71  
Snow  
Snow 0.00 in - - ()
Month to date snowfall 0.0  
Since 1 July snowfall 0.0  
Snow Depth 0.00 in    
Sea Level Pressure  
Sea Level Pressure 29.99 in    
Wind  
Wind Speed 6 mph (SSW)    
Max Wind Speed 14 mph    
Max Gust Speed 18 mph    
Visibility 9 miles    
Events      
T = Trace of Precipitation, MM = Missing Value Source: NWS Daily Summary

Daily Weather History Graph

Daily Weather History Graph

Search for Another Location

Airport or City:

Trip Planner

Search our weather history database for the weather conditions in past years. The results will help you decide how hot, cold, wet, or windy it might be!

Date:

Astronomy

Jul. 03, 2012 Rise Set
Actual Time 5:52 AM EDT 8:20 PM EDT
Civil Twilight 5:23 AM EDT 8:50 PM EDT
Nautical Twilight 4:46 AM EDT 9:26 PM EDT
Astronomical Twilight 4:06 AM EDT 10:07 PM EDT
Moon 8:16 PM EDT (7/3) 5:41 AM EDT (7/3)
Length of Visible Light 15h 27m
Length of Day
14h 28m
Full, 100% of the Moon is Illuminated
Jul 3
Full
Jul 3
Full
Jul 10
Last Quarter
Jul 19
New
Jul 26
First Quarter

Hourly Weather History & Observations

Time (EDT) Temp. Heat Index Dew Point Humidity Pressure Visibility Wind Dir Wind Speed Gust Speed Precip Events Conditions
12:51 AM 73.0 °F - 68.0 °F 84% 29.99 in 10.0 mi Calm Calm - N/A   Clear
1:51 AM 73.0 °F - 68.0 °F 84% 29.98 in 5.0 mi Calm Calm - N/A   Haze
2:51 AM 73.0 °F - 68.0 °F 84% 29.98 in 5.0 mi West 4.6 mph - N/A   Haze
3:51 AM 73.0 °F - 69.1 °F 87% 29.97 in 7.0 mi WSW 3.5 mph - N/A   Clear
4:51 AM 73.0 °F - 69.1 °F 87% 29.98 in 8.0 mi Calm Calm - N/A   Clear
5:51 AM 73.0 °F - 69.1 °F 87% 29.99 in 6.0 mi Calm Calm - N/A   Mostly Cloudy
6:51 AM 75.9 °F - 73.0 °F 91% 29.99 in 8.0 mi Calm Calm - N/A   Overcast
7:51 AM 78.1 °F - 73.0 °F 84% 30.01 in 8.0 mi Calm Calm - N/A   Overcast
8:51 AM 84.0 °F 84.9 °F 63.0 °F 49% 30.01 in 10.0 mi Calm Calm - N/A   Partly Cloudy
9:51 AM 84.9 °F 85.9 °F 63.0 °F 48% 30.01 in 10.0 mi SSE 3.5 mph - N/A   Clear
10:51 AM 86.0 °F 88.2 °F 66.0 °F 51% 30.02 in 10.0 mi South 6.9 mph - N/A   Clear
11:51 AM 86.0 °F 88.8 °F 66.9 °F 53% 30.03 in 10.0 mi South 5.8 mph - N/A   Clear
12:51 PM 87.1 °F 90.6 °F 68.0 °F 53% 30.02 in 10.0 mi South 6.9 mph - N/A   Clear
1:51 PM 87.1 °F 91.3 °F 69.1 °F 55% 30.01 in 10.0 mi South 9.2 mph - N/A   Partly Cloudy
2:51 PM 86.0 °F 93.8 °F 73.9 °F 67% 30.00 in 10.0 mi SSW 9.2 mph - N/A   Clear
3:51 PM 86.0 °F 93.8 °F 73.9 °F 67% 29.99 in 10.0 mi SSW 8.1 mph - N/A   Scattered Clouds
4:51 PM 86.0 °F 93.8 °F 73.9 °F 67% 29.98 in 10.0 mi SSW 9.2 mph - N/A   Mostly Cloudy
5:51 PM 84.9 °F 94.1 °F 75.9 °F 74% 29.97 in 10.0 mi SSW 9.2 mph - N/A   Clear
6:51 PM 84.0 °F 93.7 °F 77.0 °F 79% 29.96 in 7.0 mi SSW 8.1 mph - N/A   Clear
7:51 PM 82.9 °F 91.8 °F 77.0 °F 82% 29.96 in 7.0 mi SSW 8.1 mph - N/A   Clear
8:51 PM 82.0 °F 90.2 °F 77.0 °F 85% 29.97 in 9.0 mi SW 8.1 mph - N/A   Clear
9:51 PM 81.0 °F 87.3 °F 75.9 °F 85% 29.98 in 10.0 mi SW 9.2 mph - N/A   Clear
10:51 PM 81.0 °F 87.3 °F 75.9 °F 85% 29.97 in 9.0 mi SW 9.2 mph - N/A   Clear
11:51 PM 81.0 °F 86.7 °F 75.0 °F 82% 29.98 in 10.0 mi SW 10.4 mph - N/A   Clear